Location: Alta
(39.2070°N, 120.8111°W)
Time: 05:59:14
(UTC+00:00)

CZ-4B DEB - Pass Details

Date: 09 December 2023
Orbit: 838 x 858 km, 99.0° (Epoch: 02 March)

Event Time Altitude Azimuth Distance (km) Brightness Sun altitude
Rises 04:20:14 0° 206° (SSW) 3,414 7.6 -41.8°
Reaches altitude 10° 04:23:22 10° 225° (SW) 2,485 7.0 -42.4°
Enters shadow 04:23:32 11° 226° (SW) 2,444 6.9 -42.5°
Exits shadow 04:27:41 18° 276° (W) 1,987 6.6 -43.3°
Drops below altitude 10° 04:30:48 10° 310° (NW) 2,499 7.1 -43.9°
Sets 04:33:59 0° 329° (NNW) 3,440 7.7 -44.5°
